Date String (YYYY-MM-DD hh:mm:ss) UTC,Instrument flags,absolute air pressure of the measurement (hPa),sample flow rate (lpm),inlet stack bypass flow (lpm),air temperature of the measurement (°C),ambient temperature measured by the external sensor (°C),aerosol sample conditioner tube jacket temperature (°C),OPC LED temperature (°C),internal box temperature (°C),relative humidity of the measurement (%),span deviation,mass concentration of particles derived from Lorenz-Mie calculation of OPC scattering (μg/m³),mass concentration of particles derived from Lorenz-Mie calculation of OPC scattering (μg/m³),mass concentration of particles derived from Lorenz-Mie calculation of OPC scattering (μg/m³)
DateTimeUTC,F1_M11,P_M11,Q1_M11,Q2_M11,T1_M11,T2_M11,T3_M11,T4_M11,T5_M11,U1_M11,ZSPAN_M11,X2_M11,X0_M11,X1_M11
2023-12-12 15:00:00,SystemResetWarning,0833.4,5.00,000.00,020.9,020.0,000.0,029.3,022.2,20.9,0000.0,0003.98,0005.68,0003.81
2023-12-12 15:01:00,SystemResetWarning,0833.4,5.00,000.00,020.9,020.0,000.0,029.3,022.2,20.9,0000.0,0004.00,0005.74,0003.82
2023-12-12 15:02:00,SystemResetWarning,0833.4,5.00,000.00,020.9,019.9,000.0,029.3,022.2,20.8,0000.0,0004.00,0005.81,0003.82
2023-12-12 15:03:00,SystemResetWarning,0833.4,5.00,000.00,020.9,019.9,000.0,029.2,022.2,20.7,0000.0,0004.01,0005.86,0003.83
2023-12-12 15:04:00,SystemResetWarning,0833.4,5.01,000.00,020.9,019.9,000.0,029.2,022.2,20.7,0000.0,0004.03,0005.92,0003.86
2023-12-12 15:05:00,SystemResetWarning,0833.4,5.01,000.00,020.9,019.9,000.0,029.2,022.2,20.6,0000.0,0004.03,0007.10,0003.87
2023-12-12 15:06:00,SystemResetWarning,0833.4,5.01,000.00,020.9,019.9,000.0,029.2,022.2,20.6,0000.0,0004.03,0007.17,0003.86
2023-12-12 15:07:00,SystemResetWarning,0833.4,5.00,000.00,020.9,019.9,000.0,029.2,022.2,20.6,0000.0,0004.05,0007.22,0003.87
2023-12-12 15:08:00,SystemResetWarning,0833.4,5.00,000.00,020.9,019.9,000.0,029.2,022.1,20.6,0000.0,0004.04,0007.17,0003.88
2023-12-12 15:09:00,SystemResetWarning,0833.4,4.99,000.00,020.9,019.9,000.0,029.2,022.1,20.5,0000.0,0004.05,0007.20,0003.89
2023-12-12 15:10:00,SystemResetWarning,0833.4,4.99,000.00,020.9,019.9,000.0,029.2,022.1,20.5,0000.0,0004.08,0007.21,0003.92
2023-12-12 15:11:00,SystemResetWarning,0833.4,5.01,000.00,020.8,019.9,000.0,029.2,022.1,20.5,0000.0,0004.11,0007.23,0003.96
2023-12-12 15:12:00,SystemResetWarning,0833.4,5.01,000.00,020.8,019.9,000.0,029.2,022.1,20.5,0000.0,0004.14,0007.28,0004.00
2023-12-12 15:13:00,SystemResetWarning,0833.4,5.00,000.00,020.8,019.9,000.0,029.2,022.1,20.5,0000.0,0004.17,0007.22,0004.05
2023-12-12 15:14:00,SystemResetWarning,0833.4,5.01,000.00,020.8,019.9,000.0,029.2,022.1,20.4,0000.0,0004.21,0007.20,0004.09
2023-12-12 15:15:00,SystemResetWarning,0833.4,5.00,000.00,020.8,019.9,000.0,029.2,022.1,20.4,0000.0,0004.23,0007.19,0004.11
2023-12-12 15:16:00,SystemResetWarning,0833.5,4.99,000.00,020.8,019.9,000.0,029.2,022.1,20.4,0000.0,0004.27,0006.20,0004.14
2023-12-12 15:17:00,SystemResetWarning,0833.4,5.00,000.00,020.8,019.9,000.0,029.2,022.1,20.4,0000.0,0004.28,0006.01,0004.16
2023-12-12 15:18:00,SystemResetWarning,0833.4,5.00,000.00,020.8,019.9,000.0,029.2,022.0,20.4,0000.0,0004.29,0006.01,0004.17
2023-12-12 15:19:00,SystemResetWarning,0833.5,4.99,000.00,020.8,019.8,000.0,029.2,022.0,20.4,0000.0,0004.31,0006.03,0004.19
2023-12-12 15:20:00,SystemResetWarning,0833.4,4.99,000.00,020.8,019.8,000.0,029.2,022.0,20.3,0000.0,0004.34,0006.01,0004.20
2023-12-12 15:21:00,SystemResetWarning,0833.5,5.00,000.00,020.8,019.8,000.0,029.1,022.0,20.3,0000.0,0004.34,0006.00,0004.20
2023-12-12 15:22:00,SystemResetWarning,0833.5,5.00,000.00,020.8,019.8,000.0,029.1,022.0,20.3,0000.0,0004.34,0006.05,0004.21
2023-12-12 15:23:00,SystemResetWarning,0833.4,5.00,000.00,020.8,019.8,000.0,029.1,022.0,20.3,0000.0,0004.34,0006.10,0004.20
2023-12-12 15:24:00,SystemResetWarning,0833.5,5.01,000.00,020.8,019.8,000.0,029.1,022.0,20.3,0000.0,0004.35,0006.15,0004.20
2023-12-12 15:25:00,SystemResetWarning,0833.4,5.01,000.00,020.7,019.8,000.0,029.1,022.0,20.3,0000.0,0004.36,0006.23,0004.20
2023-12-12 15:26:00,SystemResetWarning,0833.4,5.00,000.00,020.7,019.8,000.0,029.1,022.0,20.2,0000.0,0004.37,0006.29,0004.21
2023-12-12 15:27:00,SystemResetWarning,0833.4,5.00,000.00,020.7,019.8,000.0,029.1,022.0,20.2,0000.0,0004.37,0006.25,0004.21
2023-12-12 15:28:00,SystemResetWarning,0833.4,5.00,000.00,020.7,019.8,000.0,029.1,022.0,20.2,0000.0,0004.38,0006.25,0004.21
2023-12-12 15:29:00,SystemResetWarning,0833.4,5.00,000.00,020.7,019.8,000.0,029.1,022.0,20.1,0000.0,0004.39,0006.25,0004.23
2023-12-12 15:30:00,SystemResetWarning,0833.5,4.99,000.00,020.7,019.8,000.0,029.1,021.9,20.1,0000.0,0004.40,0006.29,0004.23
2023-12-12 15:31:00,SystemResetWarning,0833.4,5.00,000.00,020.7,019.8,000.0,029.1,021.9,20.1,0000.0,0004.39,0006.24,0004.23
2023-12-12 15:32:00,SystemResetWarning,0833.4,5.00,000.00,020.7,019.7,000.0,029.1,021.9,20.1,0000.0,0004.40,0006.28,0004.24
2023-12-12 15:33:00,SystemResetWarning,0833.5,5.00,000.00,020.7,019.7,000.0,029.1,021.9,20.0,0000.0,0004.39,0006.31,0004.22
2023-12-12 15:34:00,SystemResetWarning,0833.5,5.00,000.00,020.7,019.7,000.0,029.1,021.9,20.0,0000.0,0004.38,0006.22,0004.22
2023-12-12 15:35:00,SystemResetWarning,0833.5,5.00,000.00,020.7,019.7,000.0,029.0,021.9,20.0,0000.0,0004.40,0006.27,0004.22
2023-12-12 15:36:00,SystemResetWarning,0833.5,5.00,000.00,020.6,019.7,000.0,029.0,021.9,20.0,0000.0,0004.40,0006.25,0004.22
2023-12-12 15:37:00,SystemResetWarning,0833.5,5.00,000.00,020.6,019.7,000.0,029.0,021.9,20.0,0000.0,0004.40,0006.36,0004.22
2023-12-12 15:38:00,SystemResetWarning,0833.5,4.99,000.00,020.6,019.7,000.0,029.0,021.9,20.0,0000.0,0004.43,0006.57,0004.23
2023-12-12 15:39:00,SystemResetWarning,0833.6,5.00,000.00,020.6,019.7,000.0,029.0,021.9,20.0,0000.0,0004.45,0006.65,0004.23
2023-12-12 15:40:00,SystemResetWarning,0833.6,5.00,000.00,020.6,019.7,000.0,029.0,021.9,20.0,0000.0,0004.46,0006.69,0004.24
2023-12-12 15:41:00,SystemResetWarning,0833.6,5.00,000.00,020.6,019.7,000.0,029.0,021.9,20.0,0000.0,0004.45,0006.69,0004.24
2023-12-12 15:42:00,SystemResetWarning,0833.7,5.00,000.00,020.6,019.7,000.0,029.0,021.9,20.0,0000.0,0004.46,0006.76,0004.24
2023-12-12 15:43:00,SystemResetWarning,0833.7,5.01,000.00,020.6,019.6,000.0,029.0,021.8,20.0,0000.0,0004.46,0006.73,0004.24
2023-12-12 15:44:00,SystemResetWarning,0833.7,5.00,000.00,020.6,019.6,000.0,029.0,021.8,20.0,0000.0,0004.47,0006.72,0004.26
2023-12-12 15:45:00,SystemResetWarning,0833.7,5.00,000.00,020.6,019.6,000.0,029.0,021.8,20.0,0000.0,0004.49,0006.79,0004.28
2023-12-12 15:46:00,SystemResetWarning,0833.7,4.99,000.00,020.6,019.6,000.0,028.9,021.8,20.0,0000.0,0004.50,0006.77,0004.30
2023-12-12 15:47:00,SystemResetWarning,0833.7,4.99,000.00,020.6,019.6,000.0,028.9,021.8,20.0,0000.0,0004.51,0006.78,0004.31
2023-12-12 15:48:00,SystemResetWarning,0833.7,4.99,000.00,020.6,019.6,000.0,028.9,021.8,20.0,0000.0,0004.51,0006.68,0004.32
2023-12-12 15:49:00,SystemResetWarning,0833.7,4.99,000.00,020.6,019.6,000.0,028.9,021.8,20.1,0000.0,0004.51,0006.55,0004.33
2023-12-12 15:50:00,SystemResetWarning,0833.7,5.00,000.00,020.5,019.6,000.0,028.9,021.8,20.0,0000.0,0004.51,0006.47,0004.35
2023-12-12 15:51:00,SystemResetWarning,0833.7,5.01,000.00,020.5,019.6,000.0,028.9,021.8,20.0,0000.0,0004.53,0006.53,0004.37
2023-12-12 15:52:00,SystemResetWarning,0833.7,5.01,000.00,020.5,019.6,000.0,028.9,021.8,20.0,0000.0,0004.57,0006.63,0004.40
2023-12-12 15:53:00,SystemResetWarning,0833.7,5.00,000.00,020.5,019.6,000.0,028.9,021.8,20.0,0000.0,0004.60,0006.63,0004.44
2023-12-12 15:54:00,SystemResetWarning,0833.7,5.00,000.00,020.5,019.6,000.0,028.9,021.8,20.0,0000.0,0004.66,0006.78,0004.48
2023-12-12 15:55:00,SystemResetWarning,0833.7,5.00,000.00,020.5,019.6,000.0,028.9,021.8,20.0,0000.0,0004.72,0006.92,0004.54
2023-12-12 15:56:00,SystemResetWarning,0833.8,5.00,000.00,020.5,019.6,000.0,028.9,021.8,20.0,0000.0,0004.79,0007.05,0004.59
2023-12-12 15:57:00,SystemResetWarning,0833.8,5.00,000.00,020.5,019.6,000.0,028.9,021.8,20.0,0000.0,0004.86,0007.23,0004.65
2023-12-12 15:58:00,SystemResetWarning,0833.8,4.99,000.00,020.5,019.6,000.0,028.9,021.8,19.9,0000.0,0004.91,0007.29,0004.72
2023-12-12 15:59:00,SystemResetWarning,0833.8,5.01,000.00,020.5,019.5,000.0,028.9,021.8,19.9,0000.0,0005.00,0007.50,0004.81
